Time,TemperatureF,DewpointF,PressureIn,WindDirection,WindDirectionDegrees,WindSpeedMPH,WindSpeedGustMPH,Humidity,HourlyPrecipIn,Conditions,Clouds,dailyrainin,SoftwareType,DateUTC
2013-03-27 00:02:00,34.7,32.6,30.95,WSW,252,0.0,2.0,92,0.00,RA,RA,0.00,WeatherDisplay:10.37,2013-03-27 04:02:00,
2013-03-27 00:07:00,34.6,32.5,30.95,WSW,253,0.0,4.0,92,0.00,RA,RA,0.00,WeatherDisplay:10.37,2013-03-27 04:07:00,
2013-03-27 00:12:00,34.6,32.5,30.95,WSW,253,0.0,3.0,92,0.00,CLR,CLR,0.00,WeatherDisplay:10.37,2013-03-27 04:12:00,
2013-03-27 00:17:00,34.5,32.4,30.95,WSW,253,0.0,2.0,92,0.00,CLR,CLR,0.00,WeatherDisplay:10.37,2013-03-27 04:17:00,
2013-03-27 00:22:00,34.5,32.4,30.95,WSW,253,0.0,0.0,92,0.00,CLR,CLR,0.00,WeatherDisplay:10.37,2013-03-27 04:22:00,
2013-03-27 00:32:00,34.3,32.5,30.95,WSW,253,0.0,0.0,93,0.00,CLR,CLR,0.00,WeatherDisplay:10.37,2013-03-27 04:32:00,
2013-03-27 00:37:00,34.2,32.4,30.95,WSW,253,0.0,1.0,93,0.00,CLR,CLR,0.00,WeatherDisplay:10.37,2013-03-27 04:37:00,
2013-03-27 00:47:00,34.1,32.3,30.95,WSW,253,0.0,0.0,93,0.00,CLR,CLR,0.00,WeatherDisplay:10.37,2013-03-27 04:47:00,
2013-03-27 00:52:00,34.0,32.2,30.95,WSW,253,0.0,0.0,93,0.00,CLR,CLR,0.00,WeatherDisplay:10.37,2013-03-27 04:52:00,
2013-03-27 00:57:00,33.9,32.1,30.95,WSW,253,0.0,0.0,93,0.00,CLR,CLR,0.00,WeatherDisplay:10.37,2013-03-27 04:57:00,
2013-03-27 01:02:00,33.8,32.3,30.95,WSW,253,0.0,0.0,94,0.00,CLR,CLR,0.00,WeatherDisplay:10.37,2013-03-27 05:02:00,
2013-03-27 01:12:00,33.7,32.2,30.95,WSW,253,0.0,0.0,94,0.00,CLR,CLR,0.00,WeatherDisplay:10.37,2013-03-27 05:12:00,
2013-03-27 01:17:00,33.7,32.1,30.95,WSW,253,0.0,0.0,94,0.00,CLR,CLR,0.00,WeatherDisplay:10.37,2013-03-27 05:17:00,
2013-03-27 01:27:00,33.6,32.0,30.95,WSW,253,0.0,0.0,94,0.00,CLR,CLR,0.00,WeatherDisplay:10.37,2013-03-27 05:27:00,
2013-03-27 01:32:00,33.5,32.0,30.95,WSW,253,0.0,0.0,94,0.00,CLR,CLR,0.00,WeatherDisplay:10.37,2013-03-27 05:32:00,
2013-03-27 01:37:00,33.4,31.9,30.95,WSW,253,0.0,0.0,94,0.00,CLR,CLR,0.00,WeatherDisplay:10.37,2013-03-27 05:37:00,
2013-03-27 01:42:00,33.3,31.8,30.95,WSW,253,0.0,0.0,94,0.00,CLR,CLR,0.00,WeatherDisplay:10.37,2013-03-27 05:42:00,
2013-03-27 01:47:00,33.3,32.0,30.95,WSW,253,0.0,0.0,95,0.00,CLR,CLR,0.00,WeatherDisplay:10.37,2013-03-27 05:47:00,
2013-03-27 01:57:00,33.3,32.0,30.95,WSW,253,0.0,0.0,95,0.00,CLR,CLR,0.00,WeatherDisplay:10.37,2013-03-27 05:57:00,
2013-03-27 02:02:00,33.3,32.0,30.95,WSW,253,1.0,2.0,95,0.00,CLR,CLR,0.00,WeatherDisplay:10.37,2013-03-27 06:02:00,
2013-03-27 02:07:00,33.3,32.1,30.95,WSW,253,0.0,0.0,95,0.00,CLR,CLR,0.00,WeatherDisplay:10.37,2013-03-27 06:07:00,
2013-03-27 02:12:00,33.4,32.1,30.95,WSW,253,0.0,0.0,95,0.00,CLR,CLR,0.00,WeatherDisplay:10.37,2013-03-27 06:12:00,
2013-03-27 02:17:00,33.4,32.1,30.95,WSW,253,1.0,3.0,95,0.00,CLR,CLR,0.00,WeatherDisplay:10.37,2013-03-27 06:17:00,
2013-03-27 02:22:00,33.4,32.2,30.95,WSW,253,0.0,2.0,95,0.00,CLR,CLR,0.00,WeatherDisplay:10.37,2013-03-27 06:22:00,
2013-03-27 02:32:00,33.5,32.2,30.95,WSW,253,1.0,4.0,95,0.00,CLR,CLR,0.00,WeatherDisplay:10.37,2013-03-27 06:32:00,
2013-03-27 02:37:00,33.5,32.2,30.94,WSW,253,0.0,3.0,95,0.00,CLR,CLR,0.00,WeatherDisplay:10.37,2013-03-27 06:37:00,
2013-03-27 02:42:00,33.5,32.2,30.94,WSW,253,2.0,3.0,95,0.00,CLR,CLR,0.00,WeatherDisplay:10.37,2013-03-27 06:42:00,
2013-03-27 02:47:00,33.5,32.2,30.94,WSW,253,0.0,2.0,95,0.00,CLR,CLR,0.00,WeatherDisplay:10.37,2013-03-27 06:47:00,
2013-03-27 02:52:00,33.5,32.2,30.94,WSW,253,0.0,3.0,95,0.00,CLR,CLR,0.00,WeatherDisplay:10.37,2013-03-27 06:52:00,
2013-03-27 02:57:00,33.5,32.2,30.94,WSW,257,2.0,3.0,95,0.00,CLR,CLR,0.00,WeatherDisplay:10.37,2013-03-27 06:57:00,
2013-03-27 03:07:00,33.5,32.2,30.94,WSW,258,0.0,3.0,95,0.00,CLR,CLR,0.00,WeatherDisplay:10.37,2013-03-27 07:07:00,
2013-03-27 03:12:00,33.6,32.3,30.94,WSW,258,2.0,4.0,95,0.00,CLR,CLR,0.00,WeatherDisplay:10.37,2013-03-27 07:12:00,
2013-03-27 03:22:00,33.6,32.3,30.94,WSW,258,1.0,3.0,95,0.00,CLR,CLR,0.00,WeatherDisplay:10.37,2013-03-27 07:22:00,
2013-03-27 03:27:00,33.6,32.3,30.94,WSW,258,1.0,4.0,95,0.00,CLR,CLR,0.00,WeatherDisplay:10.37,2013-03-27 07:27:00,
2013-03-27 03:32:00,33.7,32.4,30.94,West,265,2.0,5.0,95,0.00,CLR,CLR,0.00,WeatherDisplay:10.37,2013-03-27 07:32:00,
2013-03-27 03:37:00,33.7,32.4,30.94,West,270,0.0,4.0,95,0.00,CLR,CLR,0.00,WeatherDisplay:10.37,2013-03-27 07:37:00,
2013-03-27 03:42:00,33.7,32.4,30.93,West,269,1.0,6.0,95,0.00,CLR,CLR,0.00,WeatherDisplay:10.37,2013-03-27 07:42:00,
2013-03-27 03:47:00,33.7,32.4,30.93,West,262,2.0,4.0,95,0.00,CLR,CLR,0.00,WeatherDisplay:10.37,2013-03-27 07:47:00,
2013-03-27 03:52:00,33.7,32.4,30.93,WSW,251,2.0,5.0,95,0.00,CLR,CLR,0.00,WeatherDisplay:10.37,2013-03-27 07:52:00,
2013-03-27 03:57:00,33.8,32.5,30.94,WSW,247,3.0,5.0,95,0.00,CLR,CLR,0.00,WeatherDisplay:10.37,2013-03-27 07:57:00,
2013-03-27 04:02:00,33.9,32.4,30.93,WSW,250,3.0,6.0,94,0.00,CLR,CLR,0.00,WeatherDisplay:10.37,2013-03-27 08:02:00,
2013-03-27 04:12:00,33.9,32.4,30.94,West,269,3.0,7.0,94,0.00,CLR,CLR,0.00,WeatherDisplay:10.37,2013-03-27 08:12:00,
2013-03-27 04:22:00,34.0,32.2,30.94,West,271,3.0,8.0,93,0.00,CLR,CLR,0.00,WeatherDisplay:10.37,2013-03-27 08:22:00,
2013-03-27 04:27:00,34.0,32.2,30.94,West,263,5.0,9.0,93,0.00,CLR,CLR,0.00,WeatherDisplay:10.37,2013-03-27 08:27:00,
2013-03-27 04:32:00,34.0,32.2,30.93,West,259,3.0,9.0,93,0.00,CLR,CLR,0.00,WeatherDisplay:10.37,2013-03-27 08:32:00,
2013-03-27 04:37:00,34.0,32.2,30.93,WSW,256,2.0,6.0,93,0.00,CLR,CLR,0.00,WeatherDisplay:10.37,2013-03-27 08:37:00,
2013-03-27 04:42:00,34.0,32.2,30.94,West,276,2.0,8.0,93,0.00,CLR,CLR,0.00,WeatherDisplay:10.37,2013-03-27 08:42:00,
2013-03-27 04:47:00,34.0,32.2,30.94,West,276,3.0,6.0,93,0.00,CLR,CLR,0.00,WeatherDisplay:10.37,2013-03-27 08:47:00,
2013-03-27 04:52:00,34.0,32.2,30.94,West,268,3.0,7.0,93,0.00,CLR,CLR,0.00,WeatherDisplay:10.37,2013-03-27 08:52:00,
2013-03-27 04:57:00,34.0,32.2,30.94,West,261,5.0,7.0,93,0.00,CLR,CLR,0.00,WeatherDisplay:10.37,2013-03-27 08:57:00,
2013-03-27 05:02:00,34.0,32.2,30.94,West,262,3.0,7.0,93,0.00,CLR,CLR,0.00,WeatherDisplay:10.37,2013-03-27 09:02:00,
2013-03-27 05:12:00,34.0,32.2,30.94,WSW,258,3.0,12.0,93,0.00,CLR,CLR,0.00,WeatherDisplay:10.37,2013-03-27 09:12:00,
2013-03-27 05:17:00,33.9,31.9,30.94,West,260,3.0,8.0,92,0.00,CLR,CLR,0.00,WeatherDisplay:10.37,2013-03-27 09:17:00,
2013-03-27 05:22:00,33.9,31.8,30.94,West,275,3.0,8.0,92,0.00,CLR,CLR,0.00,WeatherDisplay:10.37,2013-03-27 09:22:00,
2013-03-27 05:27:00,33.9,31.8,30.94,West,272,5.0,7.0,92,0.00,CLR,CLR,0.00,WeatherDisplay:10.37,2013-03-27 09:27:00,
2013-03-27 05:32:00,33.9,31.8,30.94,West,275,2.0,8.0,92,0.00,CLR,CLR,0.00,WeatherDisplay:10.37,2013-03-27 09:32:00,
2013-03-27 05:37:00,33.9,31.8,30.94,West,272,1.0,5.0,92,0.00,CLR,CLR,0.00,WeatherDisplay:10.37,2013-03-27 09:37:00,
2013-03-27 05:42:00,33.9,31.8,30.94,West,273,0.0,4.0,92,0.00,CLR,CLR,0.00,WeatherDisplay:10.37,2013-03-27 09:42:00,
2013-03-27 05:47:00,33.8,31.8,30.94,WNW,283,3.0,9.0,92,0.00,CLR,CLR,0.00,WeatherDisplay:10.37,2013-03-27 09:47:00,
2013-03-27 05:52:00,33.9,31.8,30.94,West,275,6.0,9.0,92,0.00,CLR,CLR,0.00,WeatherDisplay:10.37,2013-03-27 09:52:00,
2013-03-27 05:57:00,33.9,31.8,30.94,West,273,6.0,9.0,92,0.00,CLR,CLR,0.00,WeatherDisplay:10.37,2013-03-27 09:57:00,
2013-03-27 06:02:00,33.9,31.8,30.94,West,266,5.0,7.0,92,0.00,CLR,CLR,0.00,WeatherDisplay:10.37,2013-03-27 10:02:00,
2013-03-27 06:07:00,33.8,31.5,30.94,West,263,3.0,6.0,91,0.00,CLR,CLR,0.00,WeatherDisplay:10.37,2013-03-27 10:07:00,
2013-03-27 06:12:00,33.8,31.5,30.94,West,274,3.0,5.0,91,0.00,CLR,CLR,0.00,WeatherDisplay:10.37,2013-03-27 10:12:00,
2013-03-27 06:17:00,33.8,31.5,30.94,West,270,1.0,8.0,91,0.00,CLR,CLR,0.00,WeatherDisplay:10.37,2013-03-27 10:17:00,
2013-03-27 06:22:00,33.7,31.4,30.94,West,263,5.0,8.0,91,0.00,CLR,CLR,0.00,WeatherDisplay:10.37,2013-03-27 10:22:00,
2013-03-27 06:27:00,33.7,31.4,30.95,West,261,2.0,10.0,91,0.00,CLR,CLR,0.00,WeatherDisplay:10.37,2013-03-27 10:27:00,
2013-03-27 06:32:00,33.7,31.4,30.95,West,264,6.0,8.0,91,0.00,CLR,CLR,0.00,WeatherDisplay:10.37,2013-03-27 10:32:00,
2013-03-27 06:37:00,33.7,31.4,30.95,West,264,3.0,6.0,91,0.00,CLR,CLR,0.00,WeatherDisplay:10.37,2013-03-27 10:37:00,
2013-03-27 06:42:00,33.6,31.3,30.95,West,271,3.0,7.0,91,0.00,CLR,CLR,0.00,WeatherDisplay:10.37,2013-03-27 10:42:00,
2013-03-27 06:47:00,33.5,31.2,30.95,West,271,6.0,8.0,91,0.00,CLR,CLR,0.00,WeatherDisplay:10.37,2013-03-27 10:47:00,
2013-03-27 06:52:00,33.6,31.2,30.95,West,262,2.0,8.0,91,0.00,CLR,CLR,0.00,WeatherDisplay:10.37,2013-03-27 10:52:00,
2013-03-27 06:57:00,33.6,31.0,30.95,West,267,6.0,9.0,90,0.00,CLR,CLR,0.00,WeatherDisplay:10.37,2013-03-27 10:57:00,
2013-03-27 07:02:00,33.6,31.0,30.96,West,276,5.0,10.0,90,0.00,CLR,CLR,0.00,WeatherDisplay:10.37,2013-03-27 11:02:00,
2013-03-27 07:07:00,33.6,31.0,30.96,West,277,3.0,10.0,90,0.00,CLR,CLR,0.00,WeatherDisplay:10.37,2013-03-27 11:07:00,
2013-03-27 07:12:00,33.6,30.7,30.96,West,278,1.0,6.0,89,0.00,CLR,CLR,0.00,WeatherDisplay:10.37,2013-03-27 11:12:00,
2013-03-27 07:17:00,33.5,30.6,30.96,West,270,2.0,8.0,89,0.00,CLR,CLR,0.00,WeatherDisplay:10.37,2013-03-27 11:17:00,
2013-03-27 07:22:00,33.4,30.5,30.96,West,266,3.0,7.0,89,0.00,CLR,CLR,0.00,WeatherDisplay:10.37,2013-03-27 11:22:00,
2013-03-27 07:27:00,33.4,30.5,30.96,West,266,5.0,8.0,89,0.00,CLR,CLR,0.00,WeatherDisplay:10.37,2013-03-27 11:27:00,
2013-03-27 07:32:00,33.5,30.6,30.97,West,266,3.0,13.0,89,0.00,CLR,CLR,0.00,WeatherDisplay:10.37,2013-03-27 11:32:00,
2013-03-27 07:37:00,33.5,30.3,30.97,WNW,289,2.0,8.0,88,0.00,CLR,CLR,0.00,WeatherDisplay:10.37,2013-03-27 11:37:00,
2013-03-27 07:42:00,33.5,30.3,30.97,WNW,294,5.0,6.0,88,0.00,CLR,CLR,0.00,WeatherDisplay:10.37,2013-03-27 11:42:00,
2013-03-27 07:47:00,33.5,30.3,30.97,West,272,3.0,7.0,88,0.00,CLR,CLR,0.00,WeatherDisplay:10.37,2013-03-27 11:47:00,
2013-03-27 07:52:00,33.5,30.3,30.97,West,269,3.0,8.0,88,0.00,CLR,CLR,0.00,WeatherDisplay:10.37,2013-03-27 11:52:00,
2013-03-27 07:57:00,33.6,30.1,30.97,West,268,5.0,6.0,87,0.00,CLR,CLR,0.00,WeatherDisplay:10.37,2013-03-27 11:57:00,
2013-03-27 08:02:00,33.5,30.1,30.97,West,266,6.0,8.0,87,0.00,CLR,CLR,0.00,WeatherDisplay:10.37,2013-03-27 12:02:00,
2013-03-27 08:07:00,33.6,30.1,30.98,West,270,5.0,9.0,87,0.00,CLR,CLR,0.00,WeatherDisplay:10.37,2013-03-27 12:07:00,
2013-03-27 08:12:00,33.6,30.1,30.98,West,270,1.0,8.0,87,0.00,CLR,CLR,0.00,WeatherDisplay:10.37,2013-03-27 12:12:00,
2013-03-27 08:17:00,33.6,30.2,30.98,West,276,3.0,7.0,87,0.00,CLR,CLR,0.00,WeatherDisplay:10.37,2013-03-27 12:17:00,
2013-03-27 08:27:00,33.7,30.2,30.98,West,276,5.0,8.0,87,0.00,CLR,CLR,0.00,WeatherDisplay:10.37,2013-03-27 12:27:00,
2013-03-27 08:32:00,33.7,30.3,30.98,West,270,5.0,7.0,87,0.00,CLR,CLR,0.00,WeatherDisplay:10.37,2013-03-27 12:32:00,
2013-03-27 08:37:00,33.8,30.3,30.98,West,271,5.0,8.0,87,0.00,CLR,CLR,0.00,WeatherDisplay:10.37,2013-03-27 12:37:00,
2013-03-27 08:47:00,33.9,30.1,30.99,West,270,5.0,12.0,86,0.00,CLR,CLR,0.00,WeatherDisplay:10.37,2013-03-27 12:47:00,
2013-03-27 08:52:00,33.9,30.2,30.99,West,269,6.0,8.0,86,0.00,CLR,CLR,0.00,WeatherDisplay:10.37,2013-03-27 12:52:00,
2013-03-27 08:57:00,34.0,30.3,31.00,West,264,7.0,10.0,86,0.00,CLR,CLR,0.00,WeatherDisplay:10.37,2013-03-27 12:57:00,
2013-03-27 09:02:00,34.0,30.3,30.99,West,264,7.0,12.0,86,0.00,CLR,CLR,0.00,WeatherDisplay:10.37,2013-03-27 13:02:00,
2013-03-27 09:07:00,34.1,30.0,30.99,West,268,7.0,12.0,85,0.00,CLR,CLR,0.00,WeatherDisplay:10.37,2013-03-27 13:07:00,
2013-03-27 09:12:00,34.1,30.1,30.99,West,267,6.0,17.0,85,0.00,CLR,CLR,0.00,WeatherDisplay:10.37,2013-03-27 13:12:00,
2013-03-27 09:17:00,34.1,30.1,31.00,West,259,6.0,14.0,85,0.00,CLR,CLR,0.00,WeatherDisplay:10.37,2013-03-27 13:17:00,
2013-03-27 09:22:00,34.2,30.2,31.00,West,264,6.0,8.0,85,0.00,CLR,CLR,0.00,WeatherDisplay:10.37,2013-03-27 13:22:00,
2013-03-27 09:27:00,34.3,30.0,31.00,West,271,6.0,12.0,84,0.00,CLR,CLR,0.00,WeatherDisplay:10.37,2013-03-27 13:27:00,
2013-03-27 09:32:00,34.3,30.0,31.00,West,273,3.0,8.0,84,0.00,CLR,CLR,0.00,WeatherDisplay:10.37,2013-03-27 13:32:00,
2013-03-27 09:37:00,34.4,30.1,31.00,West,271,2.0,9.0,84,0.01,RA,RA,0.01,WeatherDisplay:10.37,2013-03-27 13:37:00,
2013-03-27 09:42:00,34.5,29.8,31.00,West,265,6.0,9.0,83,0.00,RA,RA,0.01,WeatherDisplay:10.37,2013-03-27 13:42:00,
2013-03-27 09:47:00,34.5,29.9,31.00,WSW,258,3.0,9.0,83,0.00,,,0.01,WeatherDisplay:10.37,2013-03-27 13:47:00,
2013-03-27 09:52:00,34.5,29.9,31.00,WSW,253,6.0,9.0,83,0.00,CLR,CLR,0.01,WeatherDisplay:10.37,2013-03-27 13:52:00,
2013-03-27 10:02:00,34.5,29.9,31.00,West,267,6.0,12.0,83,0.01,RA,RA,0.02,WeatherDisplay:10.37,2013-03-27 14:02:00,
2013-03-27 10:07:00,34.6,29.7,31.00,West,268,3.0,10.0,82,0.00,RA,RA,0.02,WeatherDisplay:10.37,2013-03-27 14:07:00,
2013-03-27 10:12:00,34.7,29.8,31.00,West,260,1.0,8.0,82,0.00,,,0.02,WeatherDisplay:10.37,2013-03-27 14:12:00,
2013-03-27 10:17:00,34.8,29.9,31.00,West,260,10.0,15.0,82,0.00,CLR,CLR,0.02,WeatherDisplay:10.37,2013-03-27 14:17:00,
2013-03-27 10:22:00,34.6,29.7,31.00,West,271,7.0,14.0,82,0.00,CLR,CLR,0.02,WeatherDisplay:10.37,2013-03-27 14:22:00,
2013-03-27 10:27:00,34.7,30.1,31.00,West,279,3.0,8.0,83,0.00,CLR,CLR,0.02,WeatherDisplay:10.37,2013-03-27 14:27:00,
2013-03-27 10:32:00,34.7,30.1,31.00,West,281,7.0,12.0,83,0.00,CLR,CLR,0.02,WeatherDisplay:10.37,2013-03-27 14:32:00,
2013-03-27 10:37:00,34.8,29.9,31.00,West,265,7.0,13.0,82,0.00,CLR,CLR,0.02,WeatherDisplay:10.37,2013-03-27 14:37:00,
2013-03-27 10:42:00,34.7,30.1,31.00,WSW,256,10.0,14.0,83,0.00,CLR,CLR,0.02,WeatherDisplay:10.37,2013-03-27 14:42:00,
2013-03-27 10:47:00,34.6,30.0,31.00,West,263,8.0,15.0,83,0.00,CLR,CLR,0.02,WeatherDisplay:10.37,2013-03-27 14:47:00,
2013-03-27 10:52:00,34.8,29.9,31.01,West,267,8.0,15.0,82,0.00,CLR,CLR,0.02,WeatherDisplay:10.37,2013-03-27 14:52:00,
2013-03-27 10:57:00,34.8,29.8,31.00,WSW,258,8.0,14.0,82,0.00,CLR,CLR,0.02,WeatherDisplay:10.37,2013-03-27 14:57:00,
2013-03-27 11:02:00,34.9,30.0,31.00,WSW,257,6.0,10.0,82,0.00,CLR,CLR,0.02,WeatherDisplay:10.37,2013-03-27 15:02:00,
2013-03-27 11:07:00,35.2,30.3,31.00,West,259,8.0,14.0,82,0.00,CLR,CLR,0.02,WeatherDisplay:10.37,2013-03-27 15:07:00,
2013-03-27 11:12:00,35.4,30.2,31.00,WNW,282,2.0,15.0,81,0.00,CLR,CLR,0.02,WeatherDisplay:10.37,2013-03-27 15:12:00,
2013-03-27 11:17:00,35.8,30.5,31.00,WNW,282,8.0,12.0,81,0.00,CLR,CLR,0.02,WeatherDisplay:10.37,2013-03-27 15:17:00,
2013-03-27 11:22:00,35.8,30.5,31.00,WSW,250,7.0,10.0,81,0.00,CLR,CLR,0.02,WeatherDisplay:10.37,2013-03-27 15:22:00,
2013-03-27 11:32:00,35.8,30.6,31.00,West,261,7.0,13.0,81,0.00,CLR,CLR,0.02,WeatherDisplay:10.37,2013-03-27 15:32:00,
2013-03-27 11:42:00,36.4,30.2,31.01,West,269,8.0,13.0,78,0.00,CLR,CLR,0.02,WeatherDisplay:10.37,2013-03-27 15:42:00,
2013-03-27 11:47:00,36.3,30.1,31.01,West,259,7.0,17.0,78,0.00,CLR,CLR,0.02,WeatherDisplay:10.37,2013-03-27 15:47:00,
2013-03-27 11:52:00,36.4,29.9,31.01,West,267,10.0,20.0,77,0.00,CLR,CLR,0.02,WeatherDisplay:10.37,2013-03-27 15:52:00,
2013-03-27 11:57:00,36.2,30.0,31.01,West,265,8.0,14.0,78,0.00,CLR,CLR,0.02,WeatherDisplay:10.37,2013-03-27 15:57:00,
2013-03-27 12:07:00,36.2,30.3,31.01,WSW,250,7.0,12.0,79,0.00,CLR,CLR,0.02,WeatherDisplay:10.37,2013-03-27 16:07:00,
2013-03-27 12:12:00,36.4,30.2,31.01,West,265,7.0,15.0,78,0.00,CLR,CLR,0.02,WeatherDisplay:10.37,2013-03-27 16:12:00,
2013-03-27 12:17:00,36.5,30.0,31.01,West,276,9.0,15.0,77,0.00,CLR,CLR,0.02,WeatherDisplay:10.37,2013-03-27 16:17:00,
2013-03-27 12:27:00,36.8,30.3,31.01,West,275,5.0,12.0,77,0.00,CLR,CLR,0.02,WeatherDisplay:10.37,2013-03-27 16:27:00,
2013-03-27 12:32:00,37.1,30.2,31.01,WNW,282,6.0,12.0,76,0.00,CLR,CLR,0.02,WeatherDisplay:10.37,2013-03-27 16:32:00,
2013-03-27 12:37:00,37.1,30.0,31.01,West,272,8.0,15.0,75,0.00,CLR,CLR,0.02,WeatherDisplay:10.37,2013-03-27 16:37:00,
2013-03-27 12:42:00,36.9,30.1,31.01,WSW,255,6.0,13.0,76,0.00,CLR,CLR,0.02,WeatherDisplay:10.37,2013-03-27 16:42:00,
2013-03-27 12:47:00,37.2,30.3,31.01,West,264,7.0,14.0,76,0.00,CLR,CLR,0.02,WeatherDisplay:10.37,2013-03-27 16:47:00,
2013-03-27 12:52:00,37.3,29.8,31.02,West,276,10.0,16.0,74,0.00,CLR,CLR,0.02,WeatherDisplay:10.37,2013-03-27 16:52:00,
2013-03-27 12:57:00,37.1,29.9,31.02,WNW,282,8.0,16.0,75,0.00,CLR,CLR,0.02,WeatherDisplay:10.37,2013-03-27 16:57:00,
2013-03-27 13:02:00,37.1,29.9,31.02,West,279,8.0,14.0,75,0.00,CLR,CLR,0.02,WeatherDisplay:10.37,2013-03-27 17:02:00,
2013-03-27 13:07:00,37.2,30.3,31.02,West,272,3.0,12.0,76,0.00,CLR,CLR,0.02,WeatherDisplay:10.37,2013-03-27 17:07:00,
2013-03-27 13:12:00,37.1,30.2,31.02,West,266,10.0,14.0,76,0.00,CLR,CLR,0.02,WeatherDisplay:10.37,2013-03-27 17:12:00,
2013-03-27 13:17:00,37.1,30.2,31.02,West,267,8.0,13.0,76,0.00,CLR,CLR,0.02,WeatherDisplay:10.37,2013-03-27 17:17:00,
2013-03-27 13:22:00,37.0,30.1,31.02,West,269,6.0,12.0,76,0.00,CLR,CLR,0.02,WeatherDisplay:10.37,2013-03-27 17:22:00,
2013-03-27 13:27:00,37.0,30.5,31.02,West,268,8.0,12.0,77,0.00,CLR,CLR,0.02,WeatherDisplay:10.37,2013-03-27 17:27:00,
2013-03-27 13:32:00,37.0,30.1,31.02,West,271,8.0,13.0,76,0.00,CLR,CLR,0.02,WeatherDisplay:10.37,2013-03-27 17:32:00,
2013-03-27 13:37:00,36.7,30.2,31.02,West,268,8.0,14.0,77,0.00,CLR,CLR,0.02,WeatherDisplay:10.37,2013-03-27 17:37:00,
2013-03-27 13:42:00,36.9,30.4,31.02,West,260,9.0,12.0,77,0.00,CLR,CLR,0.02,WeatherDisplay:10.37,2013-03-27 17:42:00,
2013-03-27 13:47:00,36.9,30.3,31.02,WSW,252,6.0,13.0,77,0.00,CLR,CLR,0.02,WeatherDisplay:10.37,2013-03-27 17:47:00,
2013-03-27 13:52:00,37.0,30.8,31.02,WSW,245,7.0,12.0,78,0.00,CLR,CLR,0.02,WeatherDisplay:10.37,2013-03-27 17:52:00,
2013-03-27 13:57:00,37.2,30.9,31.02,WSW,250,7.0,12.0,78,0.00,CLR,CLR,0.02,WeatherDisplay:10.37,2013-03-27 17:57:00,
2013-03-27 14:02:00,37.1,30.6,31.02,WSW,252,9.0,13.0,77,0.00,CLR,CLR,0.02,WeatherDisplay:10.37,2013-03-27 18:02:00,
2013-03-27 14:07:00,36.9,30.0,31.02,WSW,250,8.0,16.0,76,0.00,CLR,CLR,0.02,WeatherDisplay:10.37,2013-03-27 18:07:00,
2013-03-27 14:12:00,36.9,30.4,31.02,WSW,251,8.0,14.0,77,0.00,CLR,CLR,0.02,WeatherDisplay:10.37,2013-03-27 18:12:00,
2013-03-27 14:17:00,37.1,30.6,31.01,WSW,255,8.0,13.0,77,0.00,CLR,CLR,0.02,WeatherDisplay:10.37,2013-03-27 18:17:00,
2013-03-27 14:22:00,37.2,31.0,31.01,WSW,251,3.0,12.0,78,0.00,CLR,CLR,0.02,WeatherDisplay:10.37,2013-03-27 18:22:00,
2013-03-27 14:27:00,37.5,30.6,31.01,West,264,6.0,12.0,76,0.00,CLR,CLR,0.02,WeatherDisplay:10.37,2013-03-27 18:27:00,
2013-03-27 14:32:00,37.7,30.5,31.01,West,278,7.0,14.0,75,0.00,CLR,CLR,0.02,WeatherDisplay:10.37,2013-03-27 18:32:00,
2013-03-27 14:37:00,37.6,30.4,31.01,West,273,7.0,17.0,75,0.00,CLR,CLR,0.02,WeatherDisplay:10.37,2013-03-27 18:37:00,
2013-03-27 14:42:00,37.7,30.8,31.01,West,263,10.0,15.0,76,0.00,CLR,CLR,0.02,WeatherDisplay:10.37,2013-03-27 18:42:00,
2013-03-27 14:47:00,37.5,31.3,31.01,WSW,252,9.0,13.0,78,0.00,CLR,CLR,0.02,WeatherDisplay:10.37,2013-03-27 18:47:00,
2013-03-27 14:52:00,37.5,30.9,31.01,WSW,255,7.0,12.0,77,0.00,CLR,CLR,0.02,WeatherDisplay:10.37,2013-03-27 18:52:00,
2013-03-27 14:57:00,37.5,31.3,31.01,West,276,7.0,13.0,78,0.00,CLR,CLR,0.02,WeatherDisplay:10.37,2013-03-27 18:57:00,
2013-03-27 15:07:00,38.2,30.9,31.01,WSW,252,8.0,15.0,75,0.00,CLR,CLR,0.02,WeatherDisplay:10.37,2013-03-27 19:07:00,
2013-03-27 15:12:00,38.4,31.2,31.01,WSW,253,9.0,13.0,75,0.00,CLR,CLR,0.02,WeatherDisplay:10.37,2013-03-27 19:12:00,
2013-03-27 15:17:00,38.7,31.5,31.00,WSW,258,7.0,13.0,75,0.00,CLR,CLR,0.02,WeatherDisplay:10.37,2013-03-27 19:17:00,
2013-03-27 15:22:00,38.8,31.2,31.00,WSW,249,9.0,16.0,74,0.00,CLR,CLR,0.02,WeatherDisplay:10.37,2013-03-27 19:22:00,
2013-03-27 15:27:00,38.9,31.6,31.00,WSW,246,7.0,14.0,75,0.00,CLR,CLR,0.02,WeatherDisplay:10.37,2013-03-27 19:27:00,
2013-03-27 15:32:00,39.1,31.2,31.00,WSW,258,8.0,13.0,73,0.00,CLR,CLR,0.02,WeatherDisplay:10.37,2013-03-27 19:32:00,
2013-03-27 15:37:00,39.2,31.6,31.00,West,260,9.0,13.0,74,0.00,CLR,CLR,0.02,WeatherDisplay:10.37,2013-03-27 19:37:00,
2013-03-27 15:42:00,39.3,31.4,31.00,West,262,9.0,15.0,73,0.00,CLR,CLR,0.02,WeatherDisplay:10.37,2013-03-27 19:42:00,
2013-03-27 15:47:00,39.4,30.8,31.00,West,259,10.0,15.0,71,0.00,CLR,CLR,0.02,WeatherDisplay:10.37,2013-03-27 19:47:00,
2013-03-27 15:52:00,39.5,31.2,31.00,WSW,257,7.0,13.0,72,0.00,CLR,CLR,0.02,WeatherDisplay:10.37,2013-03-27 19:52:00,
2013-03-27 15:57:00,39.6,31.0,31.00,WSW,257,10.0,15.0,71,0.00,CLR,CLR,0.02,WeatherDisplay:10.37,2013-03-27 19:57:00,
2013-03-27 16:02:00,39.8,30.8,31.00,West,260,8.0,16.0,70,0.00,CLR,CLR,0.02,WeatherDisplay:10.37,2013-03-27 20:02:00,
2013-03-27 16:07:00,40.3,31.3,31.00,West,264,9.0,14.0,70,0.00,CLR,CLR,0.02,WeatherDisplay:10.37,2013-03-27 20:07:00,
2013-03-27 16:12:00,40.7,31.3,31.00,West,268,8.0,14.0,69,0.00,CLR,CLR,0.02,WeatherDisplay:10.37,2013-03-27 20:12:00,
2013-03-27 16:17:00,40.8,31.1,31.00,West,264,8.0,13.0,68,0.00,CLR,CLR,0.02,WeatherDisplay:10.37,2013-03-27 20:17:00,
2013-03-27 16:22:00,40.7,31.0,31.00,West,263,12.0,18.0,68,0.00,CLR,CLR,0.02,WeatherDisplay:10.37,2013-03-27 20:22:00,
2013-03-27 16:27:00,40.8,31.4,31.00,West,264,6.0,13.0,69,0.00,CLR,CLR,0.02,WeatherDisplay:10.37,2013-03-27 20:27:00,
2013-03-27 16:32:00,41.0,31.2,31.00,West,262,10.0,14.0,68,0.00,CLR,CLR,0.02,WeatherDisplay:10.37,2013-03-27 20:32:00,
2013-03-27 16:42:00,41.0,31.2,31.00,WSW,251,7.0,14.0,68,0.00,CLR,CLR,0.02,WeatherDisplay:10.37,2013-03-27 20:42:00,
2013-03-27 16:47:00,41.1,30.6,31.00,WSW,245,10.0,17.0,66,0.00,CLR,CLR,0.02,WeatherDisplay:10.37,2013-03-27 20:47:00,
2013-03-27 16:52:00,41.0,30.5,31.00,WSW,248,10.0,20.0,66,0.00,CLR,CLR,0.02,WeatherDisplay:10.37,2013-03-27 20:52:00,
2013-03-27 16:57:00,41.2,30.4,31.00,West,263,5.0,17.0,65,0.00,CLR,CLR,0.02,WeatherDisplay:10.37,2013-03-27 20:57:00,
2013-03-27 17:02:00,41.3,30.5,31.00,West,265,9.0,14.0,65,0.00,CLR,CLR,0.02,WeatherDisplay:10.37,2013-03-27 21:02:00,
2013-03-27 17:07:00,41.2,29.9,31.00,West,264,13.0,18.0,64,0.00,CLR,CLR,0.02,WeatherDisplay:10.37,2013-03-27 21:07:00,
2013-03-27 17:12:00,41.0,29.7,31.00,West,271,7.0,17.0,64,0.00,CLR,CLR,0.02,WeatherDisplay:10.37,2013-03-27 21:12:00,
2013-03-27 17:17:00,40.9,29.6,31.00,West,273,7.0,16.0,64,0.00,CLR,CLR,0.02,WeatherDisplay:10.37,2013-03-27 21:17:00,
2013-03-27 17:22:00,40.8,30.3,31.00,West,269,5.0,12.0,66,0.00,CLR,CLR,0.02,WeatherDisplay:10.37,2013-03-27 21:22:00,
2013-03-27 17:27:00,40.7,29.4,31.00,WNW,284,9.0,17.0,64,0.00,CLR,CLR,0.02,WeatherDisplay:10.37,2013-03-27 21:27:00,
2013-03-27 17:37:00,40.3,29.9,31.00,WSW,252,10.0,14.0,66,0.00,CLR,CLR,0.02,WeatherDisplay:10.37,2013-03-27 21:37:00,
2013-03-27 17:42:00,40.3,29.5,31.00,WSW,248,9.0,15.0,65,0.00,CLR,CLR,0.02,WeatherDisplay:10.37,2013-03-27 21:42:00,
2013-03-27 17:47:00,40.3,29.9,31.00,WSW,255,5.0,12.0,66,0.00,CLR,CLR,0.02,WeatherDisplay:10.37,2013-03-27 21:47:00,
2013-03-27 17:52:00,40.3,29.5,31.00,West,261,6.0,12.0,65,0.00,CLR,CLR,0.02,WeatherDisplay:10.37,2013-03-27 21:52:00,
2013-03-27 17:57:00,40.2,29.4,31.00,WSW,258,6.0,12.0,65,0.00,CLR,CLR,0.02,WeatherDisplay:10.37,2013-03-27 21:57:00,
2013-03-27 18:07:00,40.2,29.7,31.00,WSW,257,6.0,12.0,66,0.00,CLR,CLR,0.02,WeatherDisplay:10.37,2013-03-27 22:07:00,
2013-03-27 18:12:00,40.1,29.6,31.00,West,266,9.0,14.0,66,0.00,CLR,CLR,0.02,WeatherDisplay:10.37,2013-03-27 22:12:00,
2013-03-27 18:17:00,40.1,29.6,31.00,West,265,5.0,12.0,66,0.00,CLR,CLR,0.02,WeatherDisplay:10.37,2013-03-27 22:17:00,
2013-03-27 18:27:00,40.0,29.6,31.00,WSW,255,5.0,9.0,66,0.00,CLR,CLR,0.02,WeatherDisplay:10.37,2013-03-27 22:27:00,
2013-03-27 18:32:00,40.0,29.9,31.01,WSW,253,6.0,9.0,67,0.00,CLR,CLR,0.02,WeatherDisplay:10.37,2013-03-27 22:32:00,
2013-03-27 18:37:00,40.0,29.6,31.01,WSW,250,6.0,12.0,66,0.00,CLR,CLR,0.02,WeatherDisplay:10.37,2013-03-27 22:37:00,
2013-03-27 18:47:00,40.0,29.9,31.00,WSW,247,5.0,10.0,67,0.00,CLR,CLR,0.02,WeatherDisplay:10.37,2013-03-27 22:47:00,
2013-03-27 18:52:00,40.0,29.9,31.00,WSW,247,3.0,8.0,67,0.00,CLR,CLR,0.02,WeatherDisplay:10.37,2013-03-27 22:52:00,
2013-03-27 18:57:00,40.0,29.9,31.00,WSW,237,3.0,8.0,67,0.00,CLR,CLR,0.02,WeatherDisplay:10.37,2013-03-27 22:57:00,
2013-03-27 19:02:00,40.0,29.6,31.00,WSW,241,5.0,8.0,66,0.00,CLR,CLR,0.02,WeatherDisplay:10.37,2013-03-27 23:02:00,
2013-03-27 19:12:00,40.0,29.6,31.00,WSW,254,3.0,7.0,66,0.00,CLR,CLR,0.02,WeatherDisplay:10.37,2013-03-27 23:12:00,
2013-03-27 19:17:00,40.0,29.9,31.01,WSW,251,2.0,6.0,67,0.00,CLR,CLR,0.02,WeatherDisplay:10.37,2013-03-27 23:17:00,
2013-03-27 19:22:00,40.0,29.9,31.01,WSW,247,5.0,8.0,67,0.00,CLR,CLR,0.02,WeatherDisplay:10.37,2013-03-27 23:22:00,
2013-03-27 19:27:00,40.1,29.6,31.01,WSW,249,5.0,9.0,66,0.00,CLR,CLR,0.02,WeatherDisplay:10.37,2013-03-27 23:27:00,
2013-03-27 19:32:00,40.1,29.3,31.01,WSW,254,6.0,10.0,65,0.00,CLR,CLR,0.02,WeatherDisplay:10.37,2013-03-27 23:32:00,
2013-03-27 19:37:00,40.2,29.0,31.00,WSW,251,6.0,10.0,64,0.00,CLR,CLR,0.02,WeatherDisplay:10.37,2013-03-27 23:37:00,
2013-03-27 19:42:00,40.1,29.6,31.00,WSW,247,2.0,6.0,66,0.00,CLR,CLR,0.02,WeatherDisplay:10.37,2013-03-27 23:42:00,
2013-03-27 19:47:00,40.0,29.2,31.01,WSW,256,3.0,7.0,65,0.00,CLR,CLR,0.02,WeatherDisplay:10.37,2013-03-27 23:47:00,
2013-03-27 19:52:00,39.9,29.5,31.01,West,263,2.0,5.0,66,0.00,CLR,CLR,0.02,WeatherDisplay:10.37,2013-03-27 23:52:00,
2013-03-27 19:57:00,39.9,29.1,31.01,WSW,257,1.0,6.0,65,0.00,CLR,CLR,0.02,WeatherDisplay:10.37,2013-03-27 23:57:00,
2013-03-27 20:02:00,39.8,29.4,31.01,WSW,251,3.0,5.0,66,0.00,CLR,CLR,0.02,WeatherDisplay:10.37,2013-03-28 00:02:00,
2013-03-27 20:07:00,39.7,29.3,31.01,WSW,254,5.0,7.0,66,0.00,CLR,CLR,0.02,WeatherDisplay:10.37,2013-03-28 00:07:00,
2013-03-27 20:12:00,39.9,29.5,31.01,West,262,3.0,6.0,66,0.00,CLR,CLR,0.02,WeatherDisplay:10.37,2013-03-28 00:12:00,
2013-03-27 20:17:00,39.9,29.1,31.01,West,265,1.0,5.0,65,0.00,CLR,CLR,0.02,WeatherDisplay:10.37,2013-03-28 00:17:00,
2013-03-27 20:22:00,39.9,29.5,31.01,West,262,0.0,1.0,66,0.00,CLR,CLR,0.02,WeatherDisplay:10.37,2013-03-28 00:22:00,
2013-03-27 20:27:00,39.9,29.1,31.01,West,270,7.0,12.0,65,0.00,CLR,CLR,0.02,WeatherDisplay:10.37,2013-03-28 00:27:00,
2013-03-27 20:32:00,40.1,29.6,31.01,West,269,6.0,12.0,66,0.00,CLR,CLR,0.02,WeatherDisplay:10.37,2013-03-28 00:32:00,
2013-03-27 20:42:00,39.9,30.5,31.02,West,280,12.0,18.0,69,0.00,CLR,CLR,0.02,WeatherDisplay:10.37,2013-03-28 00:42:00,
2013-03-27 20:47:00,39.4,31.1,31.02,WNW,283,6.0,17.0,72,0.00,CLR,CLR,0.02,WeatherDisplay:10.37,2013-03-28 00:47:00,
2013-03-27 20:52:00,39.0,31.5,31.02,West,281,6.0,14.0,74,0.00,CLR,CLR,0.02,WeatherDisplay:10.37,2013-03-28 00:52:00,
2013-03-27 20:57:00,38.7,31.8,31.02,WNW,285,5.0,12.0,76,0.00,CLR,CLR,0.02,WeatherDisplay:10.37,2013-03-28 00:57:00,
2013-03-27 21:02:00,38.5,31.9,31.02,WNW,289,8.0,10.0,77,0.00,CLR,CLR,0.02,WeatherDisplay:10.37,2013-03-28 01:02:00,
2013-03-27 21:07:00,38.3,32.0,31.02,WNW,285,2.0,8.0,78,0.00,CLR,CLR,0.02,WeatherDisplay:10.37,2013-03-28 01:07:00,
2013-03-27 21:12:00,38.1,32.2,31.02,West,277,6.0,10.0,79,0.00,CLR,CLR,0.02,WeatherDisplay:10.37,2013-03-28 01:12:00,
2013-03-27 21:17:00,38.0,32.4,31.02,WSW,248,3.0,7.0,80,0.00,CLR,CLR,0.02,WeatherDisplay:10.37,2013-03-28 01:17:00,
2013-03-27 21:27:00,37.7,32.4,31.03,West,268,1.0,7.0,81,0.00,CLR,CLR,0.02,WeatherDisplay:10.37,2013-03-28 01:27:00,
2013-03-27 21:32:00,37.6,32.6,31.03,West,272,3.0,6.0,82,0.00,CLR,CLR,0.02,WeatherDisplay:10.37,2013-03-28 01:32:00,
2013-03-27 21:37:00,37.5,32.5,31.03,West,275,2.0,5.0,82,0.00,CLR,CLR,0.02,WeatherDisplay:10.37,2013-03-28 01:37:00,
2013-03-27 21:42:00,37.4,32.4,31.03,West,276,3.0,7.0,82,0.00,CLR,CLR,0.02,WeatherDisplay:10.37,2013-03-28 01:42:00,
2013-03-27 21:47:00,37.4,32.7,31.03,WNW,284,3.0,5.0,83,0.00,CLR,CLR,0.02,WeatherDisplay:10.37,2013-03-28 01:47:00,
2013-03-27 21:57:00,37.3,32.9,31.03,West,271,2.0,6.0,84,0.00,CLR,CLR,0.02,WeatherDisplay:10.37,2013-03-28 01:57:00,
2013-03-27 22:07:00,37.0,32.9,31.03,West,277,1.0,7.0,85,0.00,CLR,CLR,0.02,WeatherDisplay:10.37,2013-03-28 02:07:00,
2013-03-27 22:12:00,36.8,33.0,31.03,West,278,0.0,4.0,86,0.00,CLR,CLR,0.02,WeatherDisplay:10.37,2013-03-28 02:12:00,
2013-03-27 22:17:00,36.6,32.8,31.03,West,278,0.0,3.0,86,0.00,CLR,CLR,0.02,WeatherDisplay:10.37,2013-03-28 02:17:00,
2013-03-27 22:22:00,36.5,33.0,31.03,West,275,2.0,4.0,87,0.00,CLR,CLR,0.02,WeatherDisplay:10.37,2013-03-28 02:22:00,
2013-03-27 22:32:00,36.3,32.8,31.03,WSW,254,2.0,3.0,87,0.00,CLR,CLR,0.02,WeatherDisplay:10.37,2013-03-28 02:32:00,
2013-03-27 22:42:00,36.1,32.9,31.03,WSW,248,2.0,4.0,88,0.00,CLR,CLR,0.02,WeatherDisplay:10.37,2013-03-28 02:42:00,
2013-03-27 22:47:00,35.9,33.0,31.03,WSW,258,1.0,5.0,89,0.00,CLR,CLR,0.02,WeatherDisplay:10.37,2013-03-28 02:47:00,
2013-03-27 22:52:00,35.8,32.9,31.03,West,264,0.0,3.0,89,0.00,CLR,CLR,0.02,WeatherDisplay:10.37,2013-03-28 02:52:00,
2013-03-27 22:57:00,35.7,33.1,31.03,West,267,0.0,3.0,90,0.00,CLR,CLR,0.02,WeatherDisplay:10.37,2013-03-28 02:57:00,
2013-03-27 23:02:00,35.6,32.9,31.03,West,267,0.0,3.0,90,0.00,CLR,CLR,0.02,WeatherDisplay:10.37,2013-03-28 03:02:00,
2013-03-27 23:07:00,35.4,32.8,31.02,West,267,0.0,2.0,90,0.01,RA,RA,0.03,WeatherDisplay:10.37,2013-03-28 03:07:00,
2013-03-27 23:12:00,35.2,32.9,31.03,West,267,0.0,0.0,91,0.00,RA,RA,0.03,WeatherDisplay:10.37,2013-03-28 03:12:00,
2013-03-27 23:17:00,35.1,32.7,31.03,West,267,0.0,0.0,91,0.00,,,0.03,WeatherDisplay:10.37,2013-03-28 03:17:00,
2013-03-27 23:22:00,35.0,32.6,31.03,West,267,0.0,2.0,91,0.00,CLR,CLR,0.03,WeatherDisplay:10.37,2013-03-28 03:22:00,
2013-03-27 23:27:00,34.9,32.8,31.03,West,267,0.0,2.0,92,0.00,CLR,CLR,0.03,WeatherDisplay:10.37,2013-03-28 03:27:00,
2013-03-27 23:37:00,34.8,32.7,31.02,West,267,1.0,1.0,92,0.00,CLR,CLR,0.03,WeatherDisplay:10.37,2013-03-28 03:37:00,
2013-03-27 23:47:00,34.7,32.9,31.03,West,267,0.0,2.0,93,0.00,CLR,CLR,0.03,WeatherDisplay:10.37,2013-03-28 03:47:00,
2013-03-27 23:57:00,34.6,32.8,31.02,West,267,0.0,0.0,93,0.00,CLR,CLR,0.03,WeatherDisplay:10.37,2013-03-28 03:57:00,